Regional Weather Roundup
Issued by NWS

Home | Current Version | Previous Version | Graphics & Text | Print | Product List | Glossary Off
Versions: 1 2 3 4 5 6 7 8 9 10 11 12 13 14 15 16 17 18 19 20 21 22 23 24 25 26 27 28 29 30 31 32 33 34 35 36 37 38 39 40 41 42 43 44 45 46 47 48 49 50

000
ASUS43 KMPX 251101
RWRMN
WEATHER ROUNDUP FOR MINNESOTA
NATIONAL WEATHER SERVICE TWIN CITIES/CHANHASSEN MN
600 AM CDT WED MAY 25 2016


NOTE: "FAIR" INDICATES FEW OR NO CLOUDS BELOW 12,000 FEET WITH NO
SIGNIFICANT WEATHER AND/OR OBSTRUCTIONS TO VISIBILITY. N/A MEANS
CURRENT SKY AND/OR WEATHER CONDITIONS ARE NOT AVAILABLE.

MNZ060>063-068>070-251200-
   Twin Cities Metro

CITY           SKY/WX    TMP DP  RH WIND       PRES   REMARKS
TWIN CITIES    CLOUDY    68  57  68 E13       29.88R
ST PAUL        CLOUDY    65  56  72 E7        29.89R
CRYSTAL        CLOUDY    62  55  77 E3        29.87R
BLAINE         CLOUDY    63  57  82 E6        29.89R
EDEN PRAIRIE   CLOUDY    66  57  72 E8        29.86R
SOUTH ST PAUL  CLOUDY    66  56  71 CALM      29.89R
LAKE ELMO      FAIR      64  55  72 E3        29.91R
$$
MNZ001>005-007-008-013>017-022>024-027-028-251200-
   Northwest Minnesota

CITY           SKY/WX    TMP DP  RH WIND       PRES   REMARKS
BEMIDJI        CLOUDY    55  54  94 E8        29.93S
HALLOCK        CLOUDY    57  52  82 E9        29.87F
ROSEAU         MOCLDY    52  46  82 NE5       29.93S
WARROAD        PTCLDY    55  52  88 CALM      29.94S
THIEF RVR FALL CLOUDY    61  50  67 E10       29.90F
CROOKSTON      CLOUDY    61  52  72 E9          N/A
FOSSTON        CLOUDY    57  52  82 E9        29.88F
DETROIT LAKES  CLOUDY    61  52  72 E8        29.87F
MOORHEAD       CLOUDY    64  50  59 E10       29.81S
PARK RAPIDS    CLOUDY    58  54  86 E10       29.90F
MAHNOMEN       FAIR      62  50  64 E12       29.85F
$$
MNZ006-009>011-018-025>026-251200-
   North Central Minnesota

CITY           SKY/WX    TMP DP  RH WIND       PRES   REMARKS
BAUDETTE       CLOUDY    51  50  96 SE6       29.94F
FLAG ISLAND    MOCLDY    57  54  88 CALM      29.95S
INTL FALLS     FOG       51  51 100 SE3       29.98S VSB<1/4
WASKISH        MOCLDY    52  52 100 E6        29.95S
BIG FORK       CLOUDY    55  54  94 SE6       29.98S
LONGVILLE      CLOUDY    55  55 100 E3        29.94F
CRANE LAKE     CLOUDY    52  52 100 CALM      30.02S
ORR            CLOUDY    54  50  87 CALM      29.98S
COOK           CLOUDY    54  52  94 CALM      30.01S
WALKER         CLOUDY    57  55  95 E9        29.92F
$$
MNZ012-019>021-037-251200-
   Northeast Minnesota

CITY           SKY/WX    TMP DP  RH WIND       PRES   REMARKS
DULUTH         FOG       50  49  96 E12       30.00F VSB 1/4
ELY            CLOUDY    52  48  87 SE7       30.02S
HIBBING        CLOUDY    52  51  97 E6        29.99F
EVELETH        CLOUDY    52  50  93 E3        30.01S
DULUTH HARBOR  FOG       46  45  93 E15       30.03S VSB 1/4
TWO HARBORS    HAZE      54  48  82 NE7       30.01S VSB 1
SILVER BAY     CLOUDY    52  48  87 NE7       30.02F FOG
GRAND MARAIS     N/A     47  44  90 NE6       30.08R
G MARAIS ARPRT FOG       48  46  93 E7        30.07S VSB 1/4
$$
MNZ029>031-032-039>041-046>048-054>057-064-251200-
   West Central Minnesota

CITY           SKY/WX    TMP DP  RH WIND       PRES   REMARKS
FERGUS FALLS   CLOUDY    64  54  68 E7        29.79S
WHEATON        CLOUDY    64  57  77 E10       29.81S
MORRIS         CLOUDY    64  57  77 E12       29.79F
ALEXANDRIA     CLOUDY    60  53  77 E10       29.86F
ELBOW LAKE     FAIR      63  56  79 SE13      29.83R
WADENA         CLOUDY    55  54  94 E9        29.88S
GLENWOOD       CLOUDY    61  55  82 E10       29.85S
APPLETON       CLOUDY    64  57  77 E9        29.79S
ORTONVILLE     CLOUDY    64  57  77 SE9       29.80R
MADISON        CLOUDY    64  57  77 SE9       29.80R
WILLMAR        FAIR      66  59  77 E10       29.84S
$$
MNZ033>034-036-042>043-049>051-058-059-251200-
   Central Minnesota

CITY           SKY/WX    TMP DP  RH WIND       PRES   REMARKS
ST CLOUD       CLOUDY    57  55  93 E10       29.88S
SAUK CENTRE    FAIR      58  55  87 E12       29.87R
PAYNESVILLE    CLOUDY    63  56  80 E5        29.86S
AITKIN         CLOUDY    54  50  87 E5        29.93S FOG
PINE RIVER     CLOUDY    55  55 100 E7        29.96S
BRAINERD       CLOUDY    56  55  97 E9        29.92F
STAPLES        CLOUDY    55  54  94 E8        29.89S
LONG PRAIRIE   FAIR      55  52  88 NE8       29.88S
LITTLE FALLS   CLOUDY    55  54  94 CALM      29.89S
LITCHFIELD     CLOUDY    63  61  94 E6        29.86S
BUFFALO        CLOUDY    62  56  80 NE7       29.88S
MAPLE LAKE     CLOUDY    62  59  90 E7        29.88S
HUTCHINSON     CLOUDY    64  60  87 E9        29.85F
$$
MNZ037-044-045-052-053-251200-
   East Central Minnesota

CITY           SKY/WX    TMP DP  RH WIND       PRES   REMARKS
PRINCETON        N/A     59  57  94 NE5       29.90S
MORA           CLOUDY    54  52  94 E3        29.94S FOG
CAMBRIDGE      CLOUDY    61  52  72 NE5       29.89S HAZE
RUSH CITY      CLOUDY    58  56  96 NE5       29.93R FOG
MOOSE LAKE     FOG       46  45  93 NE6       29.95F VSB 1
HINCKLEY       FOG       52  52 100 NE3       29.94S VSB 3/4
CLOQUET        FOG       48  46  93 E9G17     29.98F VSB 1/2
MCGREGOR       CLOUDY    52  52 100 E7        29.95F
$$
MNZ071>073-080-081-089-090-097-098-251200-
   Southwest Minnesota

CITY           SKY/WX    TMP DP  RH WIND       PRES   REMARKS
MONTEVIDEO     CLOUDY    63  59  88 S8        29.82R
GRANITE FALLS  CLOUDY    66  61  83 E8        29.83R
CANBY          CLOUDY    67  62  85 E8        29.81R
MARSHALL       CLOUDY    64  61  90 SE9       29.81R
REDWOOD FALLS  CLOUDY    66  59  78 SE8       29.82R
OLIVIA         CLOUDY    61  54  77 E10       29.81S
PIPESTONE      CLOUDY    61  59  94 SW15G29   29.84R
WINDOM         CLOUDY    66  63  88 CALM      29.85F
WORTHINGTON    CLOUDY    65  62  90 SE10      29.86R
JACKSON        CLOUDY    64  59  82 SE9       29.85F
SLAYTON        TSTM      64  63  98 S7        29.85R
$$
MNZ065>067-074>077-082>085-091>093-251200-
   South Central Minnesota

CITY           SKY/WX    TMP DP  RH WIND       PRES   REMARKS
MANKATO        MOCLDY    66  55  68 E9        29.85F
NEW ULM        CLOUDY    64  57  77 SE8       29.84R
ST JAMES       CLOUDY    61  55  82 SE8       29.87R
FAIRMONT       MOCLDY    63  54  72 S6        29.87R
GLENCOE        CLOUDY    63  61  94 E8        29.85S
FARIBAULT      CLOUDY    66  59  77 E7        29.88R
OWATONNA       MOCLDY    64  57  77 SE8       29.88S
WASECA         PTCLDY    63  57  82 E8        29.87F
ALBERT LEA     CLOUDY    64  59  82 SE8       29.87S
$$
MNZ078>079-086>088-094>096-251200-
   Southeast Minnesota

CITY           SKY/WX    TMP DP  RH WIND       PRES   REMARKS
ROCHESTER      CLOUDY    62  59  90 SE9       29.90S
RED WING       CLOUDY    61  57  88 E6        29.89S
STANTON        CLOUDY    66  57  73 E3        29.88R
DODGE CENTER   CLOUDY    63  57  82 SE8       29.90S
WINONA         CLOUDY    61  59  94 CALM      29.92S
AUSTIN         CLOUDY    63  57  82 E8        29.88S
PRESTON        CLOUDY    63  58  83 SE6       29.92R
$$
ABBREVIATIONS USED IN REMARKS
   TC - TEMPERATURES IN CELSIUS
  WCI - WIND CHILL INDEX
   HX - HEAT INDEX
  VSB - VISIBILITY
$$




USA.gov is the U.S. government's official web portal to all federal, state and local government web resources and services.